Location: Aulus
(42.7909°N, 1.3399°E)
Time: 13:39:48
(UTC+00:00)

deb Kosmos- 1980 - Pass Details

Date: 21 October 2025
Orbit: 834 x 854 km, 71.0° (Epoch: 16 November)

Event Time Altitude Azimuth Distance (km) Brightness Sun altitude
Rises 20:26:55 0° 325° (NW) 3,396 ? -37.7°
Reaches altitude 10° 20:29:38 10° 315° (NW) 2,455 ? -38.1°
Enters shadow 20:33:07 26° 280° (W) 1,577 ? -38.7°
